Theta_e
319 322 322 322 324 322 317 316 314 311 312 315 314 315 325 328 324 328 333 331 333 334 331 331 329 326 325 324 322 321 320 319 319 318 317 317 317 316 314 312 311 311 311 310 310 309 309 308 308 308 308 307 307 307 307 306 306 306 305 305 304 304 304 303 304 303 302 302 301 300 300 299 298 298 298 298 298 298 298 298 298 298 298 298 298 298 297
323 324 324 326 329 330 327 325 323 318 314 315 314 317 326 329 328 333 334 331 331 331 330 329 326 324 323 322 320 320 319 318 318 317 317 317 316 315 313 311 310 310 310 309 308 308 308 308 307 307 306 306 306 306 306 306 306 305 305 304 304 303 303 302 302 302 302 301 301 300 299 298 298 298 298 298 298 298 298 298 298 298 298 298 298 297 297
318 326 330 326 326 331 332 329 328 324 316 313 317 323 328 333 338 334 329 330 330 329 328 326 323 322 321 320 320 319 319 318 317 317 316 315 315 313 311 310 310 309 308 308 307 307 307 307 306 306 305 305 305 304 304 304 304 304 304 303 302 302 301 301 301 300 300 300 300 299 298 297 297 298 298 298 298 298 298 298 297 297 298 298 297 297 297
317 323 327 324 323 325 326 327 327 325 320 320 326 330 330 335 338 331 327 331 331 328 325 323 322 321 320 320 319 319 318 317 316 316 315 314 313 311 310 309 309 308 307 307 307 306 306 306 305 305 304 304 303 302 302 302 302 303 302 302 301 300 299 298 298 297 298 298 298 298 297 297 297 298 298 298 298 298 297 297 297 297 297 297 297 297 297
318 319 323 324 325 324 324 324 323 321 322 325 329 331 330 330 330 329 331 331 328 325 324 323 322 321 320 320 319 318 318 316 315 315 314 313 311 309 308 308 308 307 307 306 306 306 305 305 304 304 303 302 301 301 301 301 301 301 301 300 299 297 296 296 296 296 296 297 297 297 296 296 296 297 298 298 297 297 297 297 298 298 297 297 297 296 296
319 320 326 326 325 326 324 320 318 318 320 323 328 329 328 326 326 327 330 329 325 324 324 323 323 321 320 319 317 317 316 315 315 314 312 311 310 308 308 308 307 307 306 306 305 305 304 304 303 303 302 301 300 299 299 300 300 300 299 298 297 296 295 295 295 295 296 296 296 296 295 295 296 297 297 297 297 297 297 297 297 297 297 297 297 296 296
322 323 328 326 324 324 321 318 318 318 317 319 322 322 321 322 324 327 328 327 324 324 323 322 322 320 319 318 316 315 315 314 314 313 311 310 308 307 307 307 307 306 305 305 305 304 304 303 302 302 301 299 298 298 299 299 299 298 297 296 295 295 295 294 294 294 295 295 295 295 295 295 296 297 297 297 297 297 297 297 297 296 296 296 296 296 296
322 325 326 324 322 322 320 320 320 319 318 320 324 324 322 319 321 324 326 325 323 322 321 320 319 319 318 317 316 315 314 313 312 311 310 308 307 307 307 307 306 305 305 304 304 304 303 303 302 301 299 298 297 298 298 298 297 297 296 295 295 294 294 294 294 294 294 294 294 294 294 295 295 296 297 297 297 297 296 296 296 296 296 296 296 296 296
321 326 325 323 323 323 323 323 321 320 321 323 325 328 324 319 319 322 323 323 322 320 319 318 317 316 316 316 315 314 313 312 311 309 308 307 306 306 306 306 306 305 305 304 304 303 303 303 302 300 298 297 297 297 297 297 296 296 295 295 294 294 294 294 294 294 294 294 294 294 294 295 295 295 296 296 296 296 296 296 296 296 296 296 296 296 296
320 325 326 324 326 327 326 325 322 320 322 321 323 330 327 320 319 321 321 321 320 318 317 316 316 316 317 318 316 313 311 310 309 307 306 305 306 306 305 305 305 305 305 304 304 303 303 302 301 300 298 298 297 296 296 296 296 296 295 295 295 294 294 294 294 294 294 294 294 294 294 294 295 295 295 296 296 296 296 296 296 296 296 296 296 295 295
321 325 326 326 327 328 329 327 322 321 324 320 320 329 331 322 319 320 320 319 318 317 317 316 316 319 320 319 315 311 309 307 306 306 305 304 305 305 305 305 305 304 304 304 303 303 303 302 301 299 298 298 297 297 297 296 296 296 295 295 295 294 294 294 294 294 294 294 294 294 294 294 294 294 295 295 295 296 296 296 296 296 296 295 295 295 295
323 323 324 324 324 324 325 323 321 322 323 317 317 327 331 323 318 319 319 318 317 316 316 317 319 321 321 318 313 309 307 306 305 304 304 304 304 304 304 304 304 304 304 303 303 302 302 301 300 299 298 298 297 297 297 296 296 296 295 295 295 295 294 294 294 294 294 294 294 294 294 294 294 294 294 294 295 295 295 296 296 296 296 295 295 295 295
322 321 323 324 324 323 322 321 321 320 317 316 323 331 328 320 318 319 318 317 317 316 316 319 319 316 315 313 309 307 306 305 304 304 304 304 304 304 304 304 304 303 303 303 303 302 302 301 300 299 299 298 297 297 296 296 296 296 295 295 295 295 295 294 294 294 294 294 294 294 294 294 293 294 293 293 294 294 294 295 295 295 295 295 295 295 295
320 320 323 326 325 323 320 319 318 316 318 326 331 325 318 316 318 318 317 316 316 316 316 316 313 309 309 308 307 306 305 304 304 303 303 303 304 303 303 303 303 303 302 302 302 301 301 301 300 299 299 298 297 297 297 296 296 296 296 295 295 295 295 294 294 294 294 294 294 294 294 294 294 294 293 293 293 293 293 294 294 295 295 295 295 295 295
319 320 324 326 325 320 317 318 319 318 323 332 328 316 314 317 318 317 316 315 316 315 313 310 308 308 307 307 306 306 305 304 303 303 303 303 303 303 303 303 303 303 302 302 301 300 300 300 300 299 299 298 298 297 297 297 297 297 296 296 296 296 295 295 295 295 294 294 294 294 294 294 294 294 293 293 293 293 293 293 293 294 294 294 294 295 294
324 329 328 325 321 316 314 318 322 323 322 322 318 315 316 318 316 315 316 315 314 312 309 307 308 308 307 306 306 305 305 304 303 303 303 303 303 302 302 302 302 302 302 301 300 300 300 300 300 300 300 299 298 298 298 297 297 297 297 297 296 296 296 296 296 296 295 295 295 294 294 294 294 294 293 293 293 293 293 293 293 293 293 293 294 294 294
321 325 324 318 313 311 310 312 315 316 314 313 315 317 316 315 315 315 315 314 312 309 308 308 308 307 306 306 305 305 304 304 303 302 302 302 302 302 302 302 302 302 301 300 300 300 300 300 300 300 300 300 299 299 298 298 298 297 297 297 297 296 296 296 296 296 296 296 295 295 294 294 294 294 294 294 293 293 293 293 293 293 293 293 293 293 294
314 314 314 312 311 311 309 309 309 310 311 313 315 316 315 315 315 315 313 312 309 307 308 308 307 307 306 305 305 305 304 303 303 302 302 302 302 302 301 301 301 301 301 300 299 300 300 300 300 300 300 300 299 299 299 298 298 298 297 297 297 297 297 296 296 296 296 296 295 295 295 294 294 294 294 294 293 293 293 293 293 293 293 293 293 293 293
318 317 313 310 311 310 308 309 309 310 313 314 315 315 315 314 313 312 310 309 308 307 308 307 307 306 306 305 305 304 304 303 302 302 301 301 302 302 301 301 301 301 300 300 300 300 300 300 301 301 300 299 299 299 299 299 298 298 298 298 298 297 297 297 296 296 296 296 295 295 295 294 294 294 294 294 294 294 293 293 293 293 293 293 293 293 293
317 317 311 308 309 308 307 309 310 310 312 314 313 313 313 311 310 309 308 308 308 308 307 307 306 306 305 305 305 304 303 303 302 302 302 302 301 301 301 301 301 300 300 300 300 300 300 300 301 301 300 300 299 299 299 299 299 298 298 298 298 298 297 297 297 296 296 296 295 295 295 294 294 294 294 294 294 294 294 293 293 293 293 293 293 293 293
314 314 311 309 311 311 308 308 308 308 310 311 311 311 309 308 308 307 307 307 307 307 307 306 306 306 305 305 304 304 303 303 302 302 302 302 301 301 301 301 301 301 300 300 300 300 300 300 301 301 301 300 300 299 299 299 299 299 299 298 298 298 298 298 297 297 296 296 296 295 295 294 294 294 294 294 294 294 294 294 293 293 293 293 293 293 293
323 321 316 313 316 318 312 308 307 307 307 309 309 309 308 308 307 307 307 307 306 306 306 306 305 305 305 304 304 303 303 302 302 302 302 301 301 301 301 301 301 301 301 301 300 300 300 301 301 301 301 301 301 300 300 300 300 299 299 299 299 299 298 298 297 297 296 296 296 295 295 295 294 294 294 294 294 294 294 294 294 293 293 293 293 293 293
323 318 314 312 315 316 310 306 306 306 306 308 309 308 307 307 307 307 307 306 306 306 305 305 305 305 304 304 304 303 302 302 302 302 301 301 301 301 301 301 301 300 301 301 301 301 301 301 301 301 301 301 301 301 300 300 300 300 300 299 299 299 298 298 297 297 296 296 296 296 295 295 295 294 294 294 294 294 294 294 294 294 293 293 293 293 293
315 312 311 311 313 312 307 305 306 305 305 307 308 307 307 307 307 307 307 306 306 306 305 305 305 304 304 303 303 302 301 301 301 301 301 300 300 301 301 301 300 300 300 300 301 301 301 301 301 301 301 301 301 301 301 300 301 300 300 299 299 298 298 298 297 297 296 296 296 296 296 295 295 295 294 294 294 294 294 294 294 294 294 294 293 293 293
311 309 307 306 307 307 305 304 305 305 305 306 306 306 306 306 306 306 306 306 306 305 305 305 305 304 303 303 302 301 301 301 301 301 300 300 300 301 301 300 300 300 300 300 300 300 300 300 300 301 301 300 300 300 299 299 300 300 299 299 299 298 297 297 297 297 296 296 296 296 296 296 295 295 295 295 295 294 295 294 294 294 294 294 294 293 293
307 305 304 304 304 304 305 305 306 306 305 304 305 306 306 305 306 306 305 305 305 305 305 305 304 303 303 302 301 301 300 299 300 300 300 300 300 300 300 300 300 300 300 300 300 300 300 300 300 300 300 299 299 298 298 298 298 298 298 298 298 297 297 297 297 297 297 296 296 296 296 296 296 295 295 295 295 295 295 294 294 294 294 294 294 294 293
305 305 306 308 306 304 306 306 305 305 304 304 305 306 305 305 305 305 305 305 305 305 305 304 303 303 302 301 301 300 299 298 299 299 299 299 300 300 300 300 300 300 301 301 300 300 300 300 300 300 300 299 298 298 298 297 297 297 297 297 297 297 297 297 297 297 297 296 296 296 296 296 296 296 295 295 295 295 295 294 294 294 294 294 294 294 294
307 307 309 311 309 306 305 305 304 304 304 304 304 305 305 305 305 305 305 305 305 304 304 303 303 302 301 301 300 299 298 298 298 298 299 299 300 300 300 300 300 301 301 300 300 300 300 300 300 300 300 299 298 298 297 297 297 297 297 297 297 297 297 297 297 297 297 297 296 296 296 296 296 296 296 296 295 295 295 295 294 294 294 294 294 294 294
308 306 306 306 306 305 304 303 303 304 304 304 304 304 305 305 305 305 305 304 304 304 303 303 302 302 301 300 299 299 298 298 298 298 298 299 299 299 300 300 301 300 300 300 299 299 300 300 300 300 299 298 298 297 297 297 297 297 297 297 297 297 297 297 297 297 297 297 297 296 296 296 296 296 296 296 296 296 296 295 295 295 294 294 295 295 294
304 303 304 304 304 304 304 304 304 304 304 304 304 304 304 304 304 304 304 303 303 303 303 302 302 301 300 300 299 299 299 299 298 298 298 298 298 298 299 300 299 298 298 299 299 298 299 299 299 298 298 298 298 298 298 297 297 297 297 297 297 297 297 297 297 297 297 297 297 297 296 296 296 296 296 296 296 296 296 296 296 295 295 295 295 295 294
304 304 304 304 305 305 304 304 304 304 303 303 304 304 304 304 304 304 304 303 303 303 302 301 300 300 300 299 299 299 299 298 298 298 297 297 297 298 299 299 298 297 297 298 298 298 298 298 298 298 298 298 298 298 298 298 298 297 297 297 297 297 297 297 297 297 297 297 297 297 297 296 296 296 296 296 296 296 296 296 296 296 296 295 295 295 295
304 304 304 305 305 304 304 304 304 304 304 303 304 304 304 304 304 303 303 303 302 302 301 300 300 299 299 299 298 298 298 298 297 297 296 296 297 298 298 299 298 297 298 298 298 298 298 298 298 298 298 298 298 297 297 298 298 298 297 297 297 297 297 297 297 297 297 297 297 297 296 296 296 296 296 296 296 296 296 296 296 296 296 296 296 295 295
307 306 305 305 305 304 304 304 304 304 304 303 303 304 303 303 303 302 302 301 301 301 300 300 299 299 299 298 298 298 297 296 296 296 295 296 296 297 298 299 298 298 298 298 298 298 298 298 298 298 298 298 298 298 297 297 297 298 298 298 297 297 297 297 297 297 297 297 297 296 296 296 296 296 296 296 296 296 296 296 296 296 296 296 296 296 296
308 308 306 305 305 305 304 304 304 304 303 303 303 303 302 302 302 301 301 300 300 300 300 299 298 298 298 298 297 297 296 296 295 295 295 296 296 297 298 299 299 299 299 299 299 299 298 299 299 299 299 299 299 297 297 297 297 297 297 297 297 297 297 297 297 297 297 297 296 296 296 296 296 296 296 296 296 296 296 296 296 296 296 296 296 296 296
304 305 304 303 304 304 304 303 303 303 303 302 302 302 301 301 301 300 300 300 300 299 299 298 298 298 298 297 296 296 296 296 295 295 295 296 297 297 297 298 298 298 299 299 299 299 299 299 299 299 299 299 298 297 297 297 297 297 297 297 297 297 297 297 296 296 297 296 296 296 296 296 296 296 296 296 296 295 295 295 296 296 296 296 295 296 296
302 304 304 303 303 302 302 303 303 302 302 302 301 300 300 300 300 299 299 299 299 298 298 298 298 297 297 296 296 296 296 296 296 296 296 297 297 297 297 297 297 297 298 298 298 299 299 299 299 299 299 299 299 298 297 297 297 297 297 297 297 296 296 296 296 296 296 296 296 296 295 295 296 295 295 296 295 294 294 294 295 296 296 296 295 296 296
302 303 303 302 301 301 302 302 302 301 301 301 300 300 300 299 299 299 299 298 298 298 298 297 297 297 296 296 296 296 297 297 297 297 297 297 297 297 297 297 297 297 297 298 299 299 299 299 299 299 299 299 299 299 297 297 297 297 297 297 297 296 296 296 296 296 296 296 296 295 295 295 295 295 295 295 295 294 294 294 295 296 296 296 295 295 296
301 301 301 301 301 302 301 301 301 301 300 300 300 299 299 299 298 298 298 298 297 297 297 297 297 296 296 296 296 296 297 297 297 297 297 296 297 297 297 297 297 297 297 298 299 299 299 299 299 299 299 299 299 299 298 297 297 297 297 297 297 296 296 296 296 296 296 296 296 295 294 294 295 295 295 295 295 294 294 294 295 296 296 296 295 295 295
303 301 301 301 301 301 301 301 301 301 300 300 299 299 298 299 298 298 298 297 297 297 297 297 297 296 296 296 296 296 296 297 297 297 296 296 297 297 297 297 297 297 297 298 298 299 299 298 298 298 298 298 298 298 298 298 298 298 298 297 297 296 296 296 295 296 296 296 295 295 295 294 294 295 295 295 294 294 294 294 294 295 296 296 295 295 294
303 301 300 300 300 301 301 301 301 301 300 300 299 298 298 298 298 297 297 297 297 297 298 297 297 296 296 296 295 295 296 297 297 297 297 297 297 297 297 297 297 297 297 297 298 298 298 298 297 297 296 297 298 298 298 297 297 297 297 297 296 296 296 296 296 296 295 295 295 295 295 295 295 294 294 294 294 294 294 293 294 294 295 295 295 294 294
302 300 300 300 300 300 301 301 300 300 300 299 299 298 298 298 298 297 297 296 296 297 298 298 297 297 296 296 297 297 297 297 297 297 297 297 296 295 296 296 297 297 297 297 298 298 298 297 297 297 296 295 296 298 298 297 297 296 296 296 296 296 296 296 296 296 296 296 295 295 295 295 295 295 294 294 294 294 294 293 293 294 294 294 294 294 293
301 300 300 300 300 300 300 300 300 300 299 299 299 298 299 299 299 297 297 296 297 297 297 298 298 298 297 297 297 297 296 296 296 296 297 297 297 296 296 297 297 298 297 298 298 298 298 297 297 297 296 295 296 297 298 298 297 296 296 296 296 296 296 296 296 296 296 296 296 296 296 296 295 295 294 294 294 294 294 293 293 293 293 294 294 293 293
300 300 301 300 300 299 299 300 300 299 298 298 298 298 299 299 299 298 297 296 297 296 296 297 297 297 297 296 296 295 295 295 295 296 296 297 297 297 297 297 298 298 298 298 298 298 298 298 298 298 298 297 296 296 297 298 297 297 296 296 296 296 296 296 296 296 296 296 296 296 296 296 295 295 295 294 294 294 294 294 294 293 293 293 293 293 293
301 301 301 300 299 299 299 299 299 299 298 298 298 298 298 298 299 298 297 296 296 297 297 296 296 296 296 296 295 295 295 295 295 296 296 295 296 297 298 298 298 298 298 298 298 298 298 298 298 298 298 298 297 297 297 297 297 297 297 296 296 296 296 296 296 296 296 296 296 296 295 295 295 295 295 294 294 294 294 294 294 294 293 293 293 293 293
301 301 301 299 299 299 299 299 299 299 298 297 297 297 298 298 298 298 298 297 296 296 297 297 296 296 296 296 297 297 297 297 297 297 296 295 295 296 297 298 298 298 298 298 298 298 298 298 298 298 298 298 297 297 297 297 297 297 297 297 297 296 296 297 297 297 297 296 296 296 296 296 295 295 295 295 294 295 294 294 294 294 294 294 294 294 293
301 301 300 299 299 299 299 299 299 299 298 297 296 296 297 297 298 298 298 298 298 298 298 298 297 297 297 298 298 298 297 298 297 298 297 297 297 297 298 298 298 298 298 298 298 299 299 299 299 299 299 298 297 297 297 297 298 298 298 297 297 297 296 296 296 297 297 296 296 296 296 296 296 296 296 295 295 295 295 295 294 294 294 294 294 294 294
300 299 299 299 299 299 299 299 299 297 297 296 296 295 296 297 297 297 298 299 299 299 299 298 298 298 299 299 299 298 297 296 296 297 298 298 298 298 298 298 298 298 298 298 298 299 299 299 299 299 299 299 299 297 297 297 297 298 298 298 298 297 297 296 296 296 296 296 296 296 296 296 296 296 296 296 295 295 295 295 295 295 294 294 294 294 294
299 299 299 299 299 298 298 298 297 297 296 297 297 297 297 297 297 297 297 297 297 298 298 298 298 299 299 299 299 299 299 298 296 296 298 298 298 298 298 298 298 298 298 298 298 299 299 299 300 300 300 300 300 299 298 297 297 297 298 298 297 297 297 297 297 297 296 295 295 296 296 296 296 296 296 296 296 296 296 296 295 295 295 295 294 294 294
299 299 298 298 298 298 297 297 296 296 297 298 298 297 297 297 296 296 296 296 296 296 297 297 297 298 298 299 299 299 299 299 298 298 298 298 298 298 299 299 298 299 298 298 298 299 299 299 299 300 299 299 299 299 299 298 298 297 297 297 297 297 297 297 298 298 297 296 295 295 295 295 295 296 296 296 297 297 297 296 296 296 295 295 295 294 294
297 297 296 296 297 297 297 297 297 297 298 298 298 297 297 296 295 295 295 296 296 296 296 296 297 297 298 298 299 298 299 299 299 299 298 298 298 299 299 299 298 298 298 298 298 298 298 299 299 299 299 298 298 298 298 298 298 298 298 298 298 298 298 298 298 298 297 297 296 296 295 295 295 295 295 296 296 296 297 296 296 296 295 295 295 295 294
297 297 297 297 298 298 299 300 300 299 299 298 298 297 297 296 296 296 296 296 296 295 295 295 295 296 296 297 297 298 298 298 298 298 298 298 298 298 298 298 298 298 298 298 298 298 298 298 298 298 298 298 297 297 297 297 298 298 299 299 299 298 298 298 298 297 297 297 297 296 296 296 295 295 295 296 296 296 296 296 296 296 296 295 295 295 294
298 298 298 298 298 298 298 298 299 299 298 298 298 297 297 296 295 295 295 295 296 296 295 295 295 296 296 296 296 297 297 297 297 297 297 297 297 297 297 298 298 297 297 297 297 297 297 297 298 298 298 297 296 296 296 297 298 299 299 300 299 299 299 298 298 298 298 297 297 297 296 296 296 296 296 296 296 296 296 296 296 296 296 295 295 295 295
Wind_Speed
7 3 4 4 4 3 4 6 10 13 12 12 12 11 8 8 7 5 7 11 12 12 14 16 16 16 15 15 14 13 12 12 12 13 13 13 12 11 10 10 11 11 10 12 16 18 19 21 21 20 21 22 21 21 19 18 17 16 15 15 15 14 15 15 15 13 13 13 14 15 16 18 18 19 20 21 22 23 24 25 25 24 25 25 25 25 24
4 2 2 3 5 3 0 2 6 10 12 15 15 12 8 9 5 4 12 16 10 6 12 14 12 11 11 11 11 12 14 14 14 14 14 13 13 12 11 11 10 10 11 14 17 18 18 20 20 20 21 21 20 20 18 17 16 14 14 14 14 14 15 16 14 13 12 12 13 14 16 17 17 18 19 21 23 24 25 25 25 25 25 25 26 26 27
2 2 5 7 5 4 3 3 3 3 9 12 11 8 6 6 2 2 11 11 3 1 8 10 10 11 12 12 13 13 14 15 16 16 14 13 13 12 11 12 11 10 12 15 18 17 17 19 20 20 21 21 20 19 18 17 16 14 14 15 15 16 16 16 14 13 13 13 14 15 16 16 16 17 19 22 24 25 26 27 27 27 27 27 27 27 28
2 4 8 8 7 5 3 3 4 2 5 7 5 4 5 6 8 9 10 7 4 5 11 12 12 14 14 15 15 14 12 14 16 17 15 14 14 13 12 12 12 11 12 15 18 18 18 20 20 21 22 21 20 19 18 17 16 15 15 16 17 17 17 15 14 14 14 14 15 15 15 15 16 17 19 22 24 26 27 27 28 28 29 29 29 29 29
1 4 7 7 7 4 0 3 2 1 2 3 2 2 3 6 10 11 7 6 8 11 14 15 14 16 17 16 15 14 13 13 14 15 16 15 14 13 13 12 12 12 14 17 20 21 21 21 20 20 22 22 21 19 18 17 16 17 18 18 18 18 17 16 15 15 15 15 16 16 15 15 15 16 19 22 24 25 26 27 28 29 29 29 30 30 30
1 2 6 7 5 1 3 4 1 3 4 2 3 2 2 2 4 5 4 7 12 14 16 18 18 18 17 15 13 13 13 13 12 13 15 15 14 13 13 12 12 14 16 18 20 23 24 23 21 21 22 22 20 18 18 18 18 19 20 19 18 18 17 17 16 16 16 16 16 16 15 15 16 17 19 21 23 24 25 26 27 28 28 29 30 30 30
3 2 5 5 1 4 3 5 3 4 5 4 4 4 4 3 1 4 9 12 15 13 11 13 13 12 13 14 13 13 13 13 14 13 12 13 14 14 13 12 14 17 20 21 22 25 26 24 23 24 24 22 21 20 19 20 21 21 21 20 20 19 19 18 17 17 17 17 17 17 16 16 17 18 19 20 22 23 24 25 26 27 28 28 29 30 30
3 3 3 2 4 5 3 5 3 2 4 5 6 5 3 4 1 6 11 13 13 12 11 10 10 11 12 11 9 10 12 13 14 15 14 14 14 14 15 16 19 22 25 26 26 26 26 26 25 25 24 23 23 22 22 23 23 23 22 22 21 21 21 20 19 19 18 18 19 18 18 18 19 19 19 20 20 21 22 23 25 26 27 28 29 30 30
3 3 1 1 3 5 3 2 3 4 5 6 5 3 0 3 2 5 13 14 14 14 14 12 13 14 13 9 4 5 9 11 11 12 14 16 17 18 21 23 25 27 28 29 28 28 27 27 26 25 25 25 25 24 24 25 24 24 24 24 23 23 23 22 21 20 20 20 20 20 20 20 21 20 20 19 19 20 21 23 24 26 27 28 29 30 31
2 4 1 1 2 3 4 5 7 6 5 5 5 4 1 3 3 6 14 16 16 16 16 16 16 14 11 8 5 5 8 10 10 12 14 19 22 23 25 26 27 28 30 30 31 31 29 27 26 27 26 26 27 26 25 25 25 24 24 24 24 25 24 23 22 22 21 21 22 22 22 22 22 22 21 21 20 20 21 23 24 25 26 28 29 31 32
2 5 2 2 3 4 6 6 6 5 5 5 4 3 1 4 5 8 14 17 17 18 19 19 18 13 10 9 8 7 10 11 13 14 15 18 22 25 28 31 31 31 32 32 32 32 30 27 27 28 28 28 28 27 25 25 24 24 24 24 24 25 24 23 23 23 23 23 23 23 24 24 23 23 22 21 21 21 22 23 24 25 26 28 29 31 32
3 5 2 2 3 3 4 4 4 5 4 3 5 1 4 7 11 12 15 18 18 18 19 19 17 13 10 10 10 11 13 14 15 18 19 20 22 24 27 31 34 34 34 33 32 31 30 29 29 29 29 28 27 26 25 25 24 23 23 23 23 23 23 23 23 23 23 23 23 24 25 25 25 24 23 22 22 22 22 23 24 25 26 28 29 29 31
4 4 3 3 4 4 4 3 4 6 4 4 5 4 6 9 15 14 15 18 18 18 18 15 10 5 5 10 13 14 15 15 14 18 24 26 27 28 29 31 33 33 33 33 32 31 31 31 31 30 30 28 26 25 25 24 23 22 22 22 22 22 22 22 22 22 22 22 22 23 24 24 25 25 24 24 24 24 24 24 25 25 26 27 27 28 29
3 3 3 2 4 4 3 3 3 5 4 3 4 5 4 11 16 14 14 16 17 16 14 9 6 8 13 16 16 15 16 15 14 17 22 24 25 27 30 31 32 31 30 30 30 30 31 32 32 31 30 28 26 26 25 24 22 21 21 20 20 20 20 20 20 20 21 21 21 21 22 23 24 24 24 24 24 25 25 26 27 27 27 26 26 27 28
3 2 1 1 3 4 5 7 4 3 4 4 5 1 3 10 14 13 13 14 14 14 11 10 12 15 18 17 16 16 16 16 17 20 23 24 25 26 28 29 31 32 29 28 30 30 30 32 32 31 30 29 27 26 25 24 22 21 19 18 18 18 18 17 17 17 18 18 19 20 20 21 22 23 24 24 25 26 27 28 28 28 27 27 27 27 29
3 3 3 3 4 4 1 3 3 4 3 4 4 4 6 8 10 11 11 12 12 12 13 14 16 18 18 17 16 16 16 16 17 19 23 25 26 27 28 29 30 32 30 29 29 30 30 31 31 31 30 29 27 26 25 23 22 20 18 17 16 16 15 15 14 14 14 15 16 17 18 18 19 21 22 24 26 26 27 28 28 27 27 27 27 28 29
3 4 4 4 3 3 3 1 3 4 2 1 3 5 7 8 8 9 10 12 12 13 15 16 16 17 18 17 16 16 16 16 17 18 22 25 27 27 28 29 30 31 32 31 30 29 30 31 31 29 29 28 27 26 24 23 21 20 18 16 15 14 14 13 12 12 12 12 13 14 15 16 17 19 20 22 24 25 25 26 26 26 26 27 27 28 28
1 1 1 2 2 3 3 3 3 3 1 2 4 6 7 8 7 7 9 11 13 14 16 16 15 16 18 18 16 17 16 16 17 21 23 25 27 28 27 28 29 31 32 32 31 29 29 30 30 28 27 28 27 26 25 23 21 20 18 16 15 13 12 11 11 11 11 11 11 12 13 14 15 17 18 20 21 22 22 23 24 24 25 26 27 27 27
3 0 2 2 2 3 4 4 3 2 2 3 4 6 6 6 7 8 9 11 13 13 15 16 16 17 19 19 16 15 15 15 17 21 23 24 27 28 28 28 30 31 30 29 29 29 28 29 30 29 27 26 26 26 25 23 21 19 18 16 14 12 11 10 10 10 10 10 10 11 12 13 14 15 16 16 17 18 19 21 22 24 24 25 26 26 26
2 1 3 3 1 1 3 3 1 1 3 5 5 6 7 8 9 9 10 12 12 12 13 17 18 17 18 19 17 15 14 14 16 20 23 25 26 28 29 30 30 30 29 29 29 29 29 29 29 29 27 25 26 26 25 24 21 19 17 16 14 12 11 9 9 9 9 9 10 10 11 12 13 13 13 14 14 15 16 17 19 21 22 23 24 23 23
2 2 3 2 1 1 3 4 2 1 2 5 7 8 9 11 12 11 11 11 11 12 14 17 19 18 16 17 18 17 14 13 16 21 25 26 27 27 28 30 30 30 29 30 30 29 29 29 29 28 26 25 25 26 25 23 21 19 17 15 14 12 11 9 8 8 8 8 9 9 10 11 11 11 11 11 12 13 14 15 17 18 20 21 21 21 21
0 4 4 3 3 2 1 1 0 1 3 7 10 10 11 13 14 14 13 11 10 13 16 17 19 18 15 15 18 17 15 16 20 24 26 27 27 28 29 29 29 30 30 30 31 30 29 29 29 27 26 24 24 25 25 23 20 18 16 15 13 12 11 9 9 8 8 8 8 8 9 9 10 10 10 10 11 11 12 14 15 16 18 18 19 19 20
3 5 5 5 4 2 1 2 2 2 3 7 10 10 11 13 14 14 15 14 13 14 16 19 20 18 15 18 19 15 15 21 25 25 25 26 26 27 29 29 28 28 29 30 30 30 29 28 28 27 25 23 23 23 23 22 19 17 16 15 13 12 11 10 9 8 8 8 8 8 8 7 8 8 9 9 10 11 11 12 13 14 15 16 17 18 19
1 0 4 5 4 3 3 3 3 3 4 7 9 8 9 11 11 13 15 15 15 15 14 16 22 23 21 22 21 17 17 24 28 28 27 26 26 27 28 28 28 27 28 28 29 30 29 28 28 26 24 22 21 21 21 21 19 17 16 15 14 13 12 11 10 9 9 8 8 7 7 6 6 6 7 8 9 10 11 11 12 12 13 14 15 16 17
2 3 4 4 5 6 5 4 5 4 4 6 8 8 9 10 11 12 14 13 15 17 14 12 18 24 26 25 23 21 22 24 28 31 30 28 27 27 27 28 29 28 28 29 31 31 29 28 27 26 23 22 22 21 20 19 18 18 17 16 16 14 13 12 11 10 9 8 8 7 6 5 5 5 6 7 8 9 9 10 11 12 12 12 14 15 16
6 8 8 8 7 6 6 5 5 4 4 7 8 8 9 12 13 14 15 16 17 20 19 16 16 21 25 26 26 26 26 26 29 31 29 27 27 27 27 28 30 30 30 30 31 30 29 27 27 25 23 22 23 23 22 19 19 18 18 17 17 16 15 14 12 11 10 9 8 7 6 4 3 3 4 5 6 7 8 9 10 11 12 12 12 13 14
7 8 9 8 6 3 3 4 5 5 6 8 9 9 11 16 17 16 17 18 20 22 23 23 22 20 21 24 28 30 29 28 28 27 25 26 28 28 29 30 32 31 31 31 31 30 28 26 26 24 22 23 24 24 23 21 19 18 18 17 17 17 16 14 13 11 10 9 8 7 5 4 3 2 2 3 4 5 6 8 8 9 10 11 11 11 12
4 2 3 5 5 5 4 5 7 7 7 9 10 12 13 15 16 14 14 15 17 19 21 25 27 25 20 21 25 27 26 26 25 24 24 27 28 29 30 32 32 32 31 30 29 29 27 25 25 24 23 24 26 25 23 22 20 18 17 17 17 17 16 15 13 11 10 9 8 7 5 3 2 1 1 1 2 4 4 5 6 7 8 9 10 10 10
4 4 4 6 7 8 8 8 8 7 8 10 12 12 13 13 13 12 11 12 14 15 16 20 25 27 25 24 24 24 23 22 23 24 26 28 29 30 31 33 32 31 30 29 27 27 26 25 24 24 24 26 26 25 24 22 20 18 17 16 16 17 17 16 14 12 11 10 9 8 6 5 3 1 1 2 3 4 5 5 5 6 7 8 9 9 10
4 5 7 8 8 9 10 9 8 8 8 9 11 10 11 12 11 10 11 11 12 12 14 18 20 23 25 26 25 25 25 24 25 27 27 28 30 32 33 34 32 28 28 28 27 26 26 26 26 25 25 25 24 24 24 23 21 19 17 16 16 16 16 16 15 13 12 11 10 8 7 6 5 4 2 2 3 4 5 5 6 6 6 6 7 8 9
6 7 8 8 8 9 9 8 8 8 8 9 10 10 11 12 12 11 10 10 10 11 16 19 19 19 22 23 24 26 27 26 26 27 27 28 30 33 34 35 31 28 28 30 30 28 27 27 26 25 24 23 21 20 21 22 22 20 18 17 16 14 14 15 16 14 13 11 10 8 7 6 6 6 4 2 2 2 3 4 5 7 7 6 6 7 8
9 8 8 7 7 8 8 7 7 8 7 8 10 11 10 11 12 12 10 10 12 15 17 18 18 20 22 24 25 26 27 26 27 27 27 28 31 32 34 35 33 31 31 32 31 29 27 26 25 24 22 20 19 18 18 20 21 20 18 18 17 15 14 15 16 15 14 12 10 8 7 6 6 5 5 4 2 2 2 3 4 6 8 7 6 6 7
10 6 5 5 6 7 7 6 7 8 7 7 8 8 8 9 11 11 11 13 15 17 18 18 19 22 26 27 26 26 27 26 25 25 26 28 30 32 32 33 32 31 31 31 29 28 26 25 23 21 19 18 17 18 18 19 19 18 17 16 15 15 14 13 15 16 15 13 10 9 7 6 5 5 5 4 3 3 3 3 3 4 6 7 7 7 6
8 7 8 8 8 8 8 7 6 7 7 6 6 6 8 10 11 13 15 17 16 15 18 21 23 25 27 27 27 28 28 23 20 21 26 29 30 30 30 31 30 29 28 27 27 26 25 24 22 20 18 17 16 17 19 20 18 16 16 15 14 13 13 12 14 15 15 13 11 9 7 6 5 5 5 5 4 5 5 5 5 4 4 5 6 6 5
6 6 6 6 6 8 9 8 7 7 7 7 6 6 9 11 13 15 17 18 17 18 22 25 26 27 28 27 26 28 27 24 22 25 29 31 30 28 28 29 29 29 28 27 26 25 24 24 23 21 19 17 16 17 19 20 18 16 15 14 13 12 12 12 12 14 13 12 10 8 7 6 6 6 5 5 5 6 6 7 7 5 4 4 5 6 6
9 9 6 5 7 9 9 9 9 8 7 7 7 7 10 13 15 16 16 18 20 23 25 27 26 26 26 26 26 26 26 27 28 29 30 30 29 27 26 26 27 27 26 26 27 26 25 24 23 21 19 18 17 17 19 20 18 16 15 15 13 13 12 12 12 12 12 11 9 8 6 7 7 7 7 7 7 6 7 8 7 6 5 5 6 7 7
10 10 7 6 8 10 10 11 13 13 11 10 10 11 13 14 16 17 18 20 22 24 26 27 26 24 23 24 26 27 28 30 31 30 30 29 27 26 25 25 24 24 23 24 25 26 25 23 21 20 19 18 18 18 20 20 18 16 16 16 16 14 13 12 12 12 12 11 10 9 8 7 7 8 8 8 8 7 7 8 7 7 7 6 7 8 8
8 11 12 11 12 12 11 12 16 18 15 13 13 14 16 18 18 19 20 20 22 24 25 25 25 24 24 25 26 26 28 30 31 30 29 28 27 26 25 24 24 24 23 23 25 24 23 21 19 18 17 17 17 18 19 20 19 17 17 17 17 16 14 13 12 12 12 11 11 10 9 9 8 9 9 9 9 9 8 8 8 8 8 8 8 8 8
7 9 12 13 13 13 13 14 16 18 18 15 14 15 18 21 21 21 21 20 22 24 25 25 24 24 24 23 23 24 27 30 30 30 29 28 26 26 25 24 25 24 22 21 22 23 21 19 17 16 16 16 16 17 18 18 18 18 18 18 18 17 16 13 12 11 12 12 12 12 12 11 11 10 10 10 10 9 9 9 9 9 10 10 9 9 8
6 8 10 12 12 12 13 13 14 16 19 19 18 18 20 22 22 21 21 21 22 24 27 27 25 23 22 21 21 23 26 28 29 29 28 27 25 23 22 23 24 24 21 20 21 22 21 19 17 15 15 16 17 17 18 18 18 18 18 18 18 18 16 15 13 12 12 12 13 13 13 13 13 13 13 12 12 11 10 10 10 10 11 11 11 10 9
8 10 12 12 12 13 13 13 14 15 18 20 21 21 23 24 23 22 21 22 23 25 28 29 27 24 24 25 26 26 27 27 28 28 28 26 23 21 19 21 24 25 22 20 21 21 20 19 17 14 14 15 17 18 18 17 17 18 18 18 18 18 17 16 15 14 14 14 14 14 14 14 15 15 16 16 15 14 13 12 11 11 12 12 12 11 10
10 12 12 11 11 13 14 15 15 15 16 19 22 23 24 25 25 24 24 25 25 25 26 28 30 29 28 27 27 27 26 26 26 27 28 27 25 22 20 22 25 25 22 21 21 20 19 19 18 16 13 13 15 18 18 17 16 16 17 18 19 19 18 17 16 16 15 15 15 16 15 15 15 16 17 18 18 18 16 15 14 13 14 14 13 13 12
12 13 11 10 12 14 16 16 16 15 14 17 22 24 24 24 25 25 25 25 25 24 24 25 28 29 28 27 26 25 24 24 24 25 26 25 25 25 24 23 23 24 23 21 21 20 19 19 19 18 16 14 14 16 18 17 16 16 16 17 17 18 18 17 17 16 16 16 16 16 16 16 16 17 17 19 19 20 19 18 17 17 16 15 15 15 14
14 14 13 13 14 16 16 16 16 15 14 15 19 23 24 24 25 27 27 25 25 25 24 24 25 27 27 27 26 25 23 23 24 24 22 19 20 23 25 24 21 21 22 21 20 18 18 19 19 19 18 17 16 16 16 17 17 17 17 17 17 17 17 17 17 17 17 18 18 18 18 18 18 18 19 19 20 21 21 21 21 20 19 18 18 17 17
14 15 16 17 17 17 17 17 17 17 18 18 19 21 23 24 26 28 29 28 26 25 25 26 27 27 27 28 27 27 27 27 27 26 23 18 17 21 25 24 21 19 20 20 19 18 18 18 18 18 18 19 18 18 18 18 17 17 17 18 18 19 20 20 20 19 19 19 20 21 21 20 20 20 20 21 21 22 22 23 23 23 22 21 21 20 20
13 15 18 19 18 18 19 20 19 20 21 20 16 15 19 23 25 27 28 29 28 27 27 28 30 30 30 29 28 27 26 27 27 28 27 23 20 22 25 24 21 19 19 19 19 19 19 19 19 19 19 19 19 19 20 21 20 19 18 18 19 20 21 22 23 23 22 22 22 23 23 23 23 22 22 23 23 24 24 25 25 25 25 25 24 23 23
14 14 16 17 17 17 18 19 20 21 20 16 12 12 16 20 24 26 27 28 28 29 30 31 32 32 31 31 28 26 24 23 23 24 26 25 23 23 24 24 23 21 20 19 19 19 18 19 20 20 20 20 20 20 21 22 22 22 21 21 21 22 23 23 24 24 24 24 24 24 24 24 24 24 24 24 25 26 26 27 28 28 28 28 27 26 26
15 15 15 16 16 17 18 19 19 18 16 15 16 19 21 22 23 23 24 24 24 26 28 30 31 31 32 31 29 28 26 24 21 22 25 27 25 24 24 24 24 23 21 21 20 19 18 17 16 16 17 19 21 22 22 22 23 24 24 24 25 25 25 26 26 25 24 24 24 25 25 25 24 24 25 25 26 28 29 30 30 30 30 30 29 29 29
16 16 16 16 17 18 19 18 15 14 15 18 20 22 23 22 20 20 20 21 22 23 25 27 28 29 30 30 29 28 28 26 23 23 25 28 28 27 26 25 25 24 23 23 22 21 20 17 15 15 15 17 18 20 22 23 24 25 26 27 27 26 26 26 27 27 26 25 24 24 25 26 26 26 26 27 28 29 31 32 32 32 31 30 30 30 30
14 15 15 16 16 18 18 17 15 16 18 19 19 20 22 21 19 18 20 22 22 22 23 25 26 27 28 29 28 28 28 28 26 25 25 26 29 30 29 28 26 26 25 25 25 24 23 22 20 19 19 18 18 19 21 23 24 25 26 27 28 27 26 26 26 27 28 28 27 25 25 25 25 25 26 27 29 31 31 31 31 29 28 28 29 29 30
16 16 17 18 20 22 22 21 20 21 22 21 20 22 24 23 20 20 22 23 22 21 21 21 22 23 25 26 27 28 28 28 28 27 25 25 26 28 29 29 29 28 28 28 28 28 28 27 26 25 24 22 22 23 23 23 24 24 25 27 28 27 27 26 26 27 28 30 30 29 27 26 25 25 26 27 28 29 29 28 26 25 24 24 25 27 28
19 20 20 20 19 19 18 16 16 19 21 21 21 23 24 22 19 19 20 21 22 23 22 21 21 22 24 25 25 26 27 27 27 27 27 25 25 25 26 27 28 29 29 30 30 30 30 30 30 29 28 27 26 27 27 27 26 25 26 27 27 27 26 26 26 27 28 29 29 29 28 27 26 25 26 26 27 27 26 25 24 24 24 24 25 26 27
Wind_Direction
226 180 172 196 165 169 212 196 195 197 188 176 183 202 198 160 167 216 198 177 184 188 178 172 168 162 158 156 152 145 139 135 134 133 135 135 134 134 132 128 127 128 127 124 120 120 121 118 115 114 112 113 114 113 113 114 114 114 114 108 101 96 92 90 89 88 83 77 72 67 63 60 56 55 54 53 52 50 48 48 46 44 44 43 40 38 34
215 201 189 167 135 121 28 239 216 200 187 184 190 199 184 165 191 205 171 179 198 191 175 169 152 143 139 133 134 138 140 141 139 139 141 140 137 136 133 130 130 129 126 122 120 121 121 118 115 114 112 113 113 111 112 114 113 116 118 110 102 99 95 92 92 89 83 78 74 69 65 60 57 55 56 56 55 53 52 51 48 46 44 43 41 38 34
227 312 46 59 64 84 77 357 334 168 178 187 186 179 158 141 113 122 151 164 198 115 141 135 127 131 130 133 140 143 146 147 143 142 144 140 137 135 133 133 133 129 123 121 120 120 119 117 116 115 114 114 113 112 112 114 114 117 117 110 103 100 96 93 91 85 81 79 76 72 68 63 59 59 59 59 58 56 55 52 50 48 46 44 41 38 35
253 351 48 44 20 43 73 355 355 86 173 187 179 177 177 157 134 121 129 153 188 155 136 130 135 140 138 143 147 147 151 152 148 146 144 142 141 138 137 138 135 130 128 125 124 122 120 119 118 118 118 115 112 112 113 115 116 117 115 108 103 98 94 92 88 83 83 82 79 76 70 65 63 63 63 62 59 57 55 52 50 49 47 44 42 39 36
286 9 60 50 21 43 129 273 302 287 243 191 166 203 198 158 140 137 155 187 174 152 143 142 148 151 153 155 154 152 152 151 149 146 143 145 145 140 139 140 136 134 133 130 128 125 121 120 120 120 120 116 113 114 116 117 118 115 110 105 102 97 92 90 87 85 85 84 81 77 70 67 68 68 65 62 59 56 54 52 51 50 47 45 43 40 37
94 21 65 55 36 125 235 278 243 234 261 222 167 163 149 139 149 146 138 140 145 151 157 158 159 159 158 153 150 149 148 146 145 145 145 145 140 135 136 137 132 129 125 123 124 122 121 121 122 121 119 116 115 117 119 118 116 112 108 104 100 95 91 89 87 86 86 85 81 76 72 71 71 70 67 64 61 57 55 53 51 49 47 45 43 40 38
118 63 63 63 315 232 258 303 274 220 230 203 123 79 51 12 1 127 116 129 145 152 151 148 145 140 136 134 138 144 145 144 143 143 144 140 134 136 138 136 131 128 125 124 123 122 123 125 125 124 121 120 120 119 118 116 112 109 107 103 98 94 90 87 86 86 85 84 82 78 74 73 72 71 69 65 62 59 56 54 52 49 47 44 42 40 38
120 71 76 137 251 272 304 313 291 187 181 166 120 78 19 348 328 143 129 131 138 128 119 122 119 115 116 116 126 143 149 150 150 151 151 145 141 143 143 139 136 135 134 132 129 128 128 128 127 126 125 125 122 119 117 114 111 109 106 100 95 91 88 85 85 85 85 84 82 79 76 74 72 70 68 66 63 60 58 57 55 51 49 45 42 40 38
118 103 117 229 319 322 322 275 229 183 175 175 152 136 271 326 300 157 134 128 129 124 120 122 119 115 113 106 105 148 151 150 147 144 143 140 140 140 140 138 137 136 135 132 131 130 129 129 132 132 130 128 124 120 117 114 111 108 103 97 93 90 87 86 85 85 86 85 82 79 76 73 71 70 69 67 64 61 60 58 56 53 50 47 44 41 39
95 100 77 5 6 286 251 224 209 187 177 184 152 122 124 290 259 169 141 134 134 131 127 128 126 122 122 135 170 176 150 136 125 121 126 133 136 137 136 135 133 132 133 134 134 134 133 135 140 140 135 131 126 121 118 116 113 108 102 97 94 91 88 87 87 86 85 84 82 79 77 74 73 72 70 68 66 64 62 60 57 54 52 50 48 44 40
100 104 113 182 193 242 249 225 201 176 179 186 130 71 292 227 195 165 146 140 142 142 140 141 141 141 150 170 183 168 146 136 130 128 127 130 135 137 138 137 135 135 137 137 137 139 141 145 147 143 138 133 128 124 122 120 116 110 106 103 98 95 92 90 89 86 84 83 81 79 77 75 74 73 72 71 69 67 66 62 59 56 54 51 48 45 41
123 114 124 239 230 257 268 239 188 161 166 141 103 74 253 192 170 167 156 150 150 150 149 151 156 163 175 176 166 150 140 136 135 136 134 134 135 136 138 139 137 138 141 141 142 145 149 150 148 144 140 135 131 128 127 125 120 115 113 110 105 101 97 94 90 87 84 83 81 80 78 76 74 73 71 71 70 68 66 63 60 57 54 51 48 45 42
134 142 177 254 256 249 254 240 174 150 119 85 119 205 228 171 162 168 161 154 154 156 156 160 165 161 123 124 132 136 134 131 132 135 136 137 140 140 141 141 140 142 145 147 148 151 151 150 149 147 143 138 135 134 132 128 124 121 120 117 113 107 101 97 93 89 85 84 82 80 79 76 74 72 70 68 68 66 64 61 59 55 52 50 48 45 42
133 152 180 260 276 244 197 146 151 145 126 140 199 228 207 159 158 162 158 155 156 157 153 145 130 114 108 115 128 134 132 130 129 131 130 131 135 139 141 142 143 144 146 148 148 149 150 150 151 150 146 141 139 138 135 131 129 128 126 123 119 113 106 101 96 91 88 86 83 81 79 77 74 71 68 66 65 64 62 59 57 54 50 48 46 44 43
115 94 126 198 247 227 154 121 130 171 169 195 218 207 135 151 153 151 153 155 155 152 140 123 123 123 120 125 133 133 132 132 133 135 136 135 137 141 142 145 147 147 146 147 148 149 150 152 153 153 148 144 142 140 137 135 135 134 132 129 126 121 114 106 100 95 91 86 83 81 78 76 74 70 67 65 63 61 59 56 54 51 48 45 43 42 41
137 136 184 207 224 243 214 128 173 214 206 200 191 143 130 144 148 147 151 154 150 143 134 130 131 128 127 133 137 134 135 136 135 138 140 140 142 145 146 148 150 148 147 148 148 149 151 154 155 155 150 146 145 143 140 140 140 139 137 135 132 127 122 115 107 101 94 88 84 80 77 75 74 71 67 64 61 59 56 54 51 48 45 42 41 39 37
152 175 217 235 245 269 286 260 237 252 257 170 155 140 139 148 153 154 153 148 142 137 134 133 132 131 134 138 139 137 138 138 138 140 142 142 144 146 147 149 151 150 149 148 147 149 153 155 157 155 149 147 147 147 147 148 148 146 144 140 135 131 127 122 115 107 99 93 87 83 79 76 73 70 66 63 61 58 55 53 50 46 43 40 39 37 35
175 206 261 295 330 323 313 308 286 274 252 126 120 125 137 146 146 147 147 143 141 140 138 134 133 137 139 139 140 141 140 139 140 141 141 142 144 145 146 149 151 150 149 149 148 149 153 156 157 155 150 147 149 151 154 155 153 152 150 146 141 137 132 128 123 113 104 97 90 85 81 76 73 70 66 63 60 57 54 51 49 46 43 40 38 36 34
170 179 339 335 333 314 314 331 345 8 40 63 99 124 136 133 123 124 128 132 136 139 137 134 135 140 140 138 139 141 139 140 143 142 142 145 146 147 149 150 150 148 147 148 149 151 154 158 158 155 152 151 152 154 157 157 156 156 155 152 150 146 141 136 130 120 109 101 93 87 83 79 76 72 69 65 61 57 53 50 49 46 43 39 37 34 33
149 249 293 284 259 325 344 348 348 60 74 78 91 106 111 109 110 117 125 132 137 139 138 136 136 140 143 141 141 142 142 144 144 144 145 146 146 146 148 149 148 148 148 150 152 154 157 160 160 158 157 157 158 158 158 158 158 157 157 156 155 152 149 145 138 129 119 108 98 91 86 82 79 76 71 66 61 56 52 50 48 47 45 42 39 36 33
60 298 275 253 194 49 14 3 355 13 116 112 107 106 110 113 116 122 130 135 138 139 140 139 138 140 146 145 142 142 143 144 145 146 146 145 144 145 147 149 149 150 151 153 154 156 159 161 161 162 163 164 164 163 161 160 159 158 159 160 159 158 156 152 146 139 130 119 108 97 90 86 82 80 76 70 64 59 56 54 51 49 48 46 44 42 39
322 240 214 182 153 135 282 282 271 118 132 125 121 123 127 129 132 134 133 132 132 134 140 143 140 139 145 147 143 142 144 146 148 148 147 145 144 145 147 149 151 152 153 155 156 158 160 161 163 166 168 169 171 169 166 165 163 162 163 165 165 165 162 157 151 142 133 127 121 108 99 92 87 83 80 74 68 63 59 57 55 52 50 48 45 44 43
241 228 178 150 130 119 185 196 155 137 134 128 129 136 139 139 142 142 137 136 136 136 141 146 144 139 142 146 144 140 141 143 143 144 145 144 143 146 148 150 151 153 155 156 158 159 161 163 167 170 172 173 176 176 175 174 172 170 170 172 172 172 170 164 158 149 138 132 128 120 111 102 93 86 82 77 72 66 61 58 56 54 52 49 45 42 41
246 186 141 138 121 113 135 140 123 117 127 125 124 128 134 137 141 140 138 138 140 139 141 146 145 142 142 144 143 139 137 140 142 143 145 146 146 148 150 151 153 155 157 159 160 161 163 165 168 171 172 174 177 178 179 180 180 179 179 181 180 178 175 171 167 160 151 142 137 133 126 116 102 89 81 77 72 66 61 58 55 52 50 48 47 44 40
108 103 110 106 100 106 113 102 84 74 91 116 121 124 130 133 135 136 136 136 138 139 136 138 144 145 142 140 139 136 134 138 143 145 147 151 153 153 153 156 158 160 162 163 163 164 165 167 169 171 172 174 174 173 172 175 179 181 184 185 184 181 177 176 175 171 165 157 151 147 142 133 118 97 80 73 67 63 60 57 54 50 45 43 43 43 42
112 110 94 77 80 97 102 91 85 82 93 112 117 119 126 129 130 133 135 136 138 140 137 133 139 143 141 139 137 134 133 137 144 149 153 157 158 157 158 161 163 165 167 166 166 167 169 170 172 173 173 173 173 170 166 167 172 176 180 182 181 179 176 176 177 176 174 171 166 160 154 147 134 110 85 68 58 53 52 51 49 46 41 38 37 38 39
111 112 100 89 87 96 96 101 121 128 118 115 118 119 123 126 126 126 128 131 134 135 135 134 134 135 138 138 135 133 136 142 148 154 158 159 159 160 163 165 165 167 170 170 170 172 174 175 175 176 175 174 173 170 168 167 170 173 177 180 181 179 177 177 177 178 180 180 178 173 165 157 147 125 90 63 47 38 37 37 36 33 32 31 30 31 33
71 42 79 120 147 154 123 106 115 120 116 116 121 122 123 124 124 124 126 129 131 131 132 135 135 133 133 134 134 135 141 147 151 153 154 156 160 164 166 165 166 168 170 171 174 177 179 180 180 180 179 176 175 174 173 172 173 175 179 184 185 184 183 184 184 183 185 188 189 188 185 182 173 156 66 33 18 8 10 16 17 16 18 18 20 23 27
26 21 57 102 123 125 112 103 105 108 113 119 121 122 126 128 127 128 130 129 129 130 131 135 137 136 137 140 142 144 146 149 149 149 151 156 162 165 165 165 166 168 169 171 174 177 178 180 180 180 179 177 177 180 181 180 179 181 184 188 190 191 191 190 190 190 193 198 201 202 205 210 216 232 320 9 3 352 347 346 348 354 359 3 9 16 21
40 60 84 96 105 110 111 112 114 116 121 124 122 122 127 127 123 124 128 128 128 131 131 133 136 138 141 146 150 150 149 148 148 148 151 155 159 162 164 164 162 162 166 170 173 174 175 175 175 175 174 175 179 184 188 188 187 188 190 192 195 197 196 195 195 197 201 206 210 213 218 226 234 243 265 331 357 356 352 349 346 343 342 347 357 7 12
72 72 88 95 101 108 109 112 120 124 126 128 127 127 130 128 125 126 128 126 128 133 134 135 138 142 146 147 147 146 145 145 146 148 150 153 156 159 163 163 161 161 166 170 173 173 172 171 172 173 172 174 177 183 188 192 193 195 197 200 201 202 200 199 200 201 204 209 215 218 222 228 232 235 243 265 314 344 354 359 2 2 357 350 348 355 3
82 68 73 81 91 103 110 116 123 125 129 133 133 135 137 135 133 133 135 136 138 140 140 140 141 143 143 141 141 141 143 145 146 146 148 150 154 158 163 167 168 169 170 172 174 174 172 170 172 174 176 178 181 183 187 192 197 200 203 206 206 206 204 203 204 205 208 212 217 219 220 225 228 228 229 235 250 284 315 334 355 9 10 4 354 351 356
108 102 106 114 116 117 121 126 127 127 131 135 134 133 135 135 135 136 137 138 140 142 142 141 141 141 140 139 140 141 141 141 142 144 147 150 154 157 162 167 170 171 173 175 177 179 179 177 175 177 182 187 187 185 187 192 197 200 203 204 204 204 205 205 206 208 210 212 217 223 227 228 223 217 216 221 233 254 274 291 314 348 5 3 354 348 350
136 155 159 154 145 137 135 136 133 128 122 116 115 121 124 128 132 136 137 139 141 144 143 142 141 141 141 142 143 143 142 141 143 148 152 154 155 157 161 165 168 170 173 177 181 185 186 185 183 184 189 190 186 183 184 188 191 193 194 194 194 196 197 199 203 208 211 213 219 225 228 222 215 212 215 222 235 252 265 275 285 303 335 345 340 338 341
109 119 124 127 127 130 132 131 128 126 122 118 117 118 120 125 130 136 140 143 144 144 143 142 142 142 143 144 146 147 148 150 152 154 156 157 159 161 162 163 165 167 170 174 177 180 183 184 184 186 188 187 182 181 184 188 191 191 191 191 190 190 191 196 202 206 207 210 217 223 223 221 220 219 222 228 241 259 270 273 273 274 289 311 319 320 323
115 113 107 106 117 124 127 127 125 124 122 121 119 114 118 126 132 137 140 141 142 143 143 143 143 144 146 149 151 152 152 153 154 156 158 160 161 163 164 164 164 165 168 172 174 176 178 180 183 186 187 186 185 186 188 190 192 193 194 195 194 192 194 201 206 205 204 208 218 224 225 227 228 226 227 234 245 262 278 279 269 259 262 282 300 307 310
131 130 126 124 126 126 127 130 132 128 123 122 124 124 124 127 130 134 137 138 141 144 146 146 146 148 150 152 152 152 153 155 157 158 160 162 163 165 165 165 165 166 169 174 176 177 178 180 183 185 188 189 192 195 195 195 195 198 200 201 199 196 198 206 211 209 209 216 225 229 229 231 233 232 234 240 249 266 285 285 268 249 251 271 288 298 305
127 128 130 135 136 132 129 132 134 132 127 124 127 131 133 133 132 133 135 138 144 147 147 146 146 146 146 148 150 152 155 158 160 161 163 165 166 166 167 169 172 172 174 176 178 178 179 181 182 185 188 190 193 196 198 202 206 209 209 208 206 203 203 209 211 210 212 217 225 230 233 236 238 240 241 245 253 267 282 285 270 252 251 264 279 289 299
112 117 126 133 133 129 128 131 134 135 134 132 131 133 136 137 137 135 135 139 144 145 143 141 142 143 144 148 151 155 159 162 164 165 166 168 170 172 174 178 181 181 179 180 181 180 181 183 186 191 196 197 197 196 198 204 210 212 211 212 211 207 207 209 210 211 214 220 226 233 238 241 244 246 246 246 251 262 274 279 270 259 255 261 270 280 289
123 129 133 132 131 131 133 133 134 136 138 139 139 140 140 140 138 137 137 141 146 148 147 144 143 145 150 154 156 159 163 166 168 169 170 171 173 177 181 185 187 186 185 186 186 186 187 190 193 200 205 205 204 202 201 203 206 208 210 213 213 210 210 212 213 216 221 227 232 237 242 245 249 250 249 248 250 257 266 270 267 260 258 259 264 273 281
136 138 137 135 135 137 137 135 135 138 141 144 146 148 147 146 143 141 142 147 152 154 153 152 153 156 161 164 165 165 168 170 172 174 175 174 174 175 181 187 191 191 191 191 192 193 195 197 200 204 207 207 206 205 203 202 204 206 208 212 212 212 214 218 221 225 230 236 241 245 248 250 251 250 249 249 251 254 260 264 263 260 259 259 262 269 275
139 140 138 136 138 137 137 137 138 139 143 148 151 152 153 153 151 149 150 153 156 157 159 162 164 166 167 167 167 168 170 174 176 177 179 181 182 182 185 190 192 193 194 196 196 198 202 206 207 208 208 206 206 206 205 205 205 207 209 212 214 216 220 224 228 233 237 241 246 250 252 253 254 252 249 249 251 253 256 259 260 259 259 260 264 267 271
146 144 139 138 142 141 141 143 143 141 145 152 155 157 158 158 156 154 154 155 158 161 163 165 167 168 168 169 168 168 172 177 179 180 183 188 191 192 194 195 196 197 199 201 202 204 209 212 212 212 213 211 209 208 209 210 212 213 214 215 218 221 226 231 236 241 244 246 248 250 252 254 254 252 249 250 251 252 253 256 259 260 261 262 265 266 268
149 147 144 145 148 146 144 145 145 144 149 157 161 161 160 160 160 161 160 161 163 166 166 167 167 168 169 170 170 169 172 177 182 183 183 185 192 197 200 201 202 203 204 206 209 212 216 219 220 220 220 219 218 216 215 215 217 220 222 224 227 229 232 237 242 246 248 249 249 251 254 256 256 255 253 253 253 253 254 255 258 260 261 261 262 263 265
151 151 149 148 148 149 151 153 155 156 157 158 160 162 163 164 166 167 166 167 168 170 171 171 171 171 172 174 177 180 184 188 190 190 186 185 192 200 202 204 206 207 208 211 216 219 223 227 230 230 229 227 226 225 224 224 225 227 230 234 237 239 240 243 246 249 253 255 255 254 255 255 255 256 256 257 257 257 257 257 259 260 261 261 261 262 263
151 151 151 151 155 159 162 162 160 157 153 149 150 161 168 169 170 171 173 174 176 177 179 179 179 179 180 182 184 187 190 194 197 199 198 199 202 205 205 207 210 211 209 212 217 221 227 234 239 241 240 236 231 229 229 230 231 234 237 241 246 248 249 249 250 252 257 260 261 260 260 259 258 258 258 259 259 260 260 260 260 260 260 261 262 263 264
147 150 156 159 158 157 157 153 149 146 145 144 151 168 175 176 175 177 180 182 183 183 184 185 185 186 188 190 192 193 193 192 196 201 203 205 209 212 211 212 213 214 214 217 220 225 234 242 244 244 242 238 234 233 233 233 234 236 241 245 250 253 254 253 253 256 259 260 261 262 264 264 263 262 261 259 259 260 261 261 261 261 260 260 261 263 264
153 157 163 161 154 148 147 147 145 148 157 166 171 175 179 181 182 182 183 185 186 186 187 188 190 192 195 197 201 204 203 200 199 203 205 206 210 214 215 214 216 218 220 222 225 231 239 243 239 235 235 236 237 237 239 239 240 242 245 250 254 257 258 257 256 258 259 259 259 261 263 265 265 264 264 263 263 263 263 262 262 262 261 261 262 263 264
161 158 157 155 152 151 151 151 154 165 176 179 177 177 179 179 179 181 184 187 188 189 191 194 196 198 200 202 206 210 211 210 212 214 213 211 212 215 216 218 220 222 224 227 231 237 241 241 237 234 237 241 242 243 245 248 249 250 251 254 257 259 261 262 262 261 261 260 261 263 265 266 266 267 268 269 270 269 267 264 263 263 263 263 264 265 266
152 150 151 154 157 160 162 167 175 182 184 181 179 179 177 173 173 179 186 188 189 192 196 199 202 205 207 209 210 212 214 215 218 220 220 218 218 218 220 221 223 226 230 233 237 240 242 242 241 241 244 248 251 253 254 255 256 256 257 258 259 260 263 266 266 265 262 261 262 266 268 269 269 271 273 274 274 273 271 268 266 265 264 264 264 265 266
157 161 166 170 174 177 180 185 191 191 187 184 182 180 178 178 181 185 187 188 189 192 195 200 205 209 212 213 215 216 217 218 219 221 222 223 222 223 225 227 230 233 235 238 240 243 244 245 245 246 249 253 258 260 260 260 259 259 259 259 260 262 265 268 269 268 267 265 264 266 269 271 272 274 276 276 275 274 271 268 266 266 265 265 266 268 269
173 176 177 178 179 181 183 189 195 191 186 183 182 182 183 182 180 180 184 190 194 195 197 201 208 214 217 218 219 220 220 221 222 223 223 224 226 227 229 233 236 239 240 241 243 245 246 248 249 252 255 259 261 263 262 260 260 260 260 260 260 262 264 267 269 271 272 271 269 267 267 270 273 275 276 275 273 272 270 267 265 265 265 267 269 272 274